Location: Ernsee
(50.8780°N, 12.0389°E)
Time: 12:14:15
(UTC+00:00)

FENGYUN 3A - Pass Details

Date: 20 January 2020
Orbit: 824 x 836 km, 98.4° (Epoch: 16 February)

Event Time Altitude Azimuth Distance (km) Brightness Sun altitude
Rises 04:46:47 0° 14° (NNE) 3,378 6.9 -21.1°
Reaches altitude 10° 04:49:08 10° 14° (NNE) 2,442 6.2 -20.8°
Maximum altitude 04:54:34 87° 288° (WNW) 837 3.6 -19.9°
Drops below altitude 10° 04:59:58 10° 198° (SSW) 2,432 6.0 -19.1°
Sets 05:02:19 0° 198° (SSW) 3,363 6.7 -18.7°
